Snowfall_Accumulation
0.0 0.0 0.0 0.0 0.0 0.0 0.0 0.0 0.0 0.0 0.0 0.0 0.0 0.0 0.0 0.0 0.0 0.0 0.0 0.0 0.0 0.0 0.0 0.0 0.0 0.0 0.0 0.0 0.0 0.0 0.0 0.0 0.0 0.0 0.0 0.0 0.0 0.0 0.0 0.0 0.0 0.0 0.0 0.0 0.0 0.0 0.0
0.0 0.0 0.0 0.0 0.0 0.0 0.0 0.0 0.0 0.0 0.0 0.0 0.0 0.0 0.0 0.0 0.0 0.0 0.0 0.0 0.0 0.0 0.0 0.0 0.0 0.0 0.0 0.0 0.0 0.0 0.0 0.0 0.0 0.0 0.0 0.0 0.0 0.0 0.0 0.0 0.0 0.0 0.0 0.0 0.0 0.0 0.0
0.0 0.0 0.0 0.0 0.0 0.0 0.0 0.0 0.0 0.0 0.0 0.0 0.0 0.0 0.0 0.0 0.0 0.0 0.0 0.0 0.0 0.0 0.0 0.0 0.0 0.0 0.0 0.0 0.0 0.0 0.0 0.0 0.0 0.0 0.0 0.0 0.0 0.0 0.0 0.0 0.0 0.0 0.0 0.0 0.0 0.0 0.0
0.0 0.0 0.0 0.0 0.0 0.0 0.0 0.0 0.0 0.0 0.0 0.0 0.0 0.0 0.0 0.0 0.0 0.0 0.0 0.0 0.0 0.0 0.0 0.0 0.0 0.0 0.0 0.0 0.0 0.0 0.0 0.0 0.0 0.0 0.0 0.0 0.0 0.0 0.0 0.0 0.0 0.0 0.0 7.0 0.0 0.0 0.0
0.0 0.0 0.0 0.0 0.0 0.0 0.0 0.0 0.0 0.0 0.0 0.0 0.0 0.0 0.0 0.0 0.0 0.0 0.0 0.0 0.0 0.0 0.0 0.0 0.0 0.0 0.0 0.0 0.0 0.0 0.0 0.0 0.0 0.0 0.0 0.0 0.0 0.0 0.0 0.0 0.0 0.0 3.3 6.1 0.0 0.0 0.0
0.0 0.0 0.0 0.0 0.0 0.0 0.0 0.0 0.0 0.0 0.0 0.0 0.0 0.0 0.0 0.0 0.0 0.0 0.0 0.0 0.0 0.0 0.0 0.0 0.0 0.0 0.0 0.0 0.0 0.0 0.0 0.0 0.0 0.0 0.0 0.0 0.0 0.0 0.0 0.8 3.9 2.6 1.7 0.2 2.2 0.0 0.0
0.0 0.0 0.0 0.0 0.0 0.0 0.0 0.0 0.0 0.0 0.0 0.0 0.0 0.0 0.0 0.0 0.0 0.0 0.0 0.0 0.0 0.0 0.0 0.0 0.0 0.0 0.0 0.0 0.0 0.0 0.0 0.0 0.0 0.0 0.0 0.0 1.3 1.2 0.0 0.0 0.0 0.0 1.4 0.7 0.0 0.0 0.0
0.0 0.0 0.0 0.0 0.0 0.0 0.0 0.0 0.0 0.0 0.0 0.0 0.0 0.0 0.0 0.0 0.0 0.0 0.0 0.0 0.0 0.0 0.0 0.0 0.0 0.0 0.0 0.0 0.0 0.0 0.0 0.0 0.0 0.0 0.0 0.0 1.0 0.0 0.1 0.0 0.2 0.0 2.5 1.8 0.0 0.0 0.0
0.0 0.0 0.0 0.0 0.0 0.0 0.0 0.0 0.0 0.0 0.0 0.0 0.0 0.0 0.0 0.0 0.0 0.0 0.0 0.0 0.0 0.0 2.8 0.0 0.0 0.0 0.0 0.0 0.0 0.0 0.0 0.0 0.2 0.0 0.5 2.2 0.0 0.0 0.0 0.3 1.3 2.0 2.9 3.0 1.6 0.0 0.0
0.0 0.0 0.0 0.0 0.0 0.0 0.0 0.0 0.0 0.0 0.0 0.0 0.0 0.0 0.0 0.0 0.0 0.0 0.0 0.0 0.0 0.0 21.1 5.1 0.1 0.0 0.0 0.0 0.4 0.0 0.0 0.0 1.2 1.5 0.1 1.4 0.0 0.0 0.3 0.6 0.3 4.2 0.0 0.0 1.4 4.5 4.7
0.0 0.0 0.0 0.0 0.0 0.0 0.0 0.0 0.0 0.0 0.0 0.0 0.0 0.0 0.0 0.0 0.0 0.0 0.0 0.0 0.0 0.0 19.4 1.3 0.0 0.0 0.0 0.4 0.0 0.0 0.0 0.0 2.1 1.6 3.0 11.1 0.0 0.1 1.0 0.0 0.0 0.4 0.0 0.1 1.8 5.1 5.9
0.0 0.0 0.0 0.0 0.0 0.0 0.0 0.0 0.0 0.0 0.0 0.0 0.0 0.0 0.0 0.0 0.0 0.0 0.0 0.0 0.0 26.8 19.9 12.6 0.0 0.0 0.0 0.0 0.0 0.0 0.3 0.0 0.0 0.5 0.0 1.4 0.0 0.0 1.0 0.0 0.1 0.0 0.0 0.0 1.7 4.4 17.9
0.0 0.0 0.0 0.0 0.0 0.0 0.0 0.0 0.0 0.0 0.0 0.0 0.0 0.0 0.0 0.0 0.0 0.0 0.0 0.0 25.2 17.1 5.9 10.1 4.9 0.0 0.0 0.0 0.0 0.2 0.6 2.2 3.6 14.8 14.2 8.8 4.0 0.3 0.4 2.8 0.4 1.3 9.4 22.2 19.4 21.0 6.4
0.0 0.0 0.0 0.0 0.0 0.0 0.0 0.0 0.0 0.0 0.0 0.0 0.0 0.0 0.0 0.0 0.0 0.0 0.0 4.5 15.9 4.5 8.8 0.0 0.0 0.0 2.1 0.1 0.1 0.0 0.2 4.1 2.0 3.5 7.1 11.4 12.1 5.3 1.3 3.7 4.6 0.7 5.0 14.1 9.0 4.5 1.5
0.0 0.0 0.0 0.0 0.0 0.0 0.0 0.0 0.0 0.0 0.0 0.0 0.0 0.0 0.0 0.0 0.0 0.0 0.2 21.7 8.7 8.0 6.6 0.5 0.0 2.1 1.9 0.0 0.5 0.8 1.3 4.0 3.2 3.0 10.2 8.5 4.7 0.6 1.6 0.4 1.0 4.2 13.9 2.0 7.5 3.0 3.7
0.0 0.0 0.0 0.0 0.0 0.0 0.0 0.0 0.0 0.0 0.0 0.0 0.0 0.0 0.0 0.0 0.0 0.0 7.7 17.2 5.8 1.9 0.0 0.3 3.9 1.1 2.1 0.6 1.8 1.7 1.8 5.2 3.0 2.2 2.3 4.5 4.6 0.2 0.9 1.4 0.3 4.0 2.3 11.8 22.1 14.5 3.6
0.0 0.0 0.0 0.0 0.0 0.0 0.0 0.0 0.0 0.0 0.0 0.0 0.0 0.2 0.0 0.0 0.0 0.1 25.8 12.7 4.4 0.7 0.9 0.5 0.9 2.3 1.9 1.6 0.1 1.6 2.8 2.8 2.1 1.5 1.4 4.2 13.0 1.3 0.8 5.0 5.2 7.3 21.1 10.5 9.9 4.8 7.3
0.0 0.0 0.0 0.0 0.0 0.0 0.0 0.0 0.0 0.0 0.0 0.0 0.0 7.6 0.0 0.0 0.8 8.3 13.3 5.9 0.0 1.1 0.3 0.7 1.6 3.2 2.7 1.4 1.7 0.7 1.7 2.8 2.4 2.7 3.1 3.8 12.8 11.0 2.7 3.1 3.4 3.8 7.0 10.5 11.6 4.1 4.1
0.0 0.0 0.0 0.0 0.0 0.0 0.0 0.0 0.0 0.0 0.0 0.0 4.8 0.0 0.0 0.0 13.2 7.9 2.4 0.6 0.3 0.1 0.4 0.2 0.9 1.0 1.7 1.3 2.7 0.1 0.1 0.1 0.9 1.1 3.3 4.9 18.6 12.3 8.6 5.3 2.2 7.1 5.1 6.7 9.4 10.9 9.6
0.0 0.0 0.0 0.0 0.0 0.0 0.0 0.0 0.0 0.0 0.0 0.0 6.3 11.2 0.0 0.0 1.1 7.7 3.4 1.7 0.0 0.1 0.0 0.9 0.8 0.5 0.5 0.2 0.0 0.9 0.2 0.0 0.0 0.4 2.3 3.8 10.3 11.4 10.7 12.0 9.6 8.4 3.2 5.3 18.9 24.7 6.9
0.0 0.0 0.0 0.0 0.0 0.0 0.0 0.0 0.0 0.0 0.0 0.0 5.2 7.0 1.2 10.6 3.8 2.5 3.5 4.0 1.5 2.1 0.8 1.0 0.7 0.8 2.6 2.7 0.3 0.3 0.1 0.0 0.0 0.0 0.8 2.2 13.9 4.2 1.8 0.9 5.8 5.6 3.9 6.1 16.1 5.7 10.8
0.0 0.0 0.0 0.0 0.0 0.0 0.0 0.0 0.0 0.0 0.0 0.0 7.5 10.5 7.9 2.9 1.7 2.4 3.0 2.7 2.0 1.6 2.7 1.0 0.6 0.5 0.5 2.4 1.5 1.4 0.3 0.0 0.8 0.0 0.0 3.1 13.6 10.4 7.5 1.7 2.5 5.5 3.2 3.5 6.1 1.7 3.0
0.0 0.0 0.0 0.0 0.0 0.0 0.0 0.0 0.0 0.0 0.0 5.2 0.4 1.3 14.9 1.3 2.0 4.1 2.6 3.1 2.7 1.9 0.0 0.6 0.7 1.4 0.3 0.3 0.0 0.0 0.0 0.0 1.3 2.8 1.1 4.3 7.3 11.0 7.0 2.8 5.5 10.4 8.6 4.0 2.5 0.9 1.5
0.0 0.0 0.0 0.0 0.0 0.0 0.0 0.0 0.0 0.0 0.0 0.0 0.0 7.7 19.7 9.1 2.3 1.3 1.6 3.3 2.8 1.7 2.6 0.6 0.5 1.6 0.1 0.0 0.1 0.0 0.0 0.0 0.0 0.4 0.0 0.6 5.6 8.2 7.8 4.8 11.9 3.0 1.9 1.7 2.4 1.4 0.6
0.0 0.0 0.0 0.0 0.0 0.0 0.0 0.0 0.0 0.0 0.0 0.0 0.0 5.9 17.6 10.6 0.2 0.1 2.7 2.5 2.5 2.5 1.8 1.1 0.3 0.0 0.0 0.8 1.4 1.0 1.4 1.4 0.0 0.0 0.2 1.8 2.6 7.1 6.0 3.0 0.4 0.4 0.6 0.7 1.0 1.7 0.6
0.0 0.0 0.0 0.0 0.0 0.0 0.0 0.0 0.0 0.0 0.0 0.0 0.0 0.0 11.5 18.6 0.9 0.8 2.0 2.5 3.9 3.9 3.4 1.9 0.0 0.0 0.1 3.7 5.0 6.1 2.5 1.6 1.2 1.6 1.6 0.0 0.8 7.4 4.3 4.7 1.6 0.7 0.1 0.1 0.0 3.1 0.2
0.0 0.0 0.0 0.0 0.0 0.0 0.0 0.0 0.0 0.0 0.0 0.0 0.0 0.0 10.6 18.8 0.6 1.4 3.1 2.9 1.8 3.5 6.5 3.4 3.0 1.1 0.0 3.2 7.3 5.2 0.8 0.8 0.8 2.1 2.3 3.9 4.3 5.5 2.9 4.7 0.3 0.0 0.0 0.0 0.9 1.4 0.2
0.0 0.0 0.0 0.0 0.0 0.0 0.0 0.0 0.0 0.0 0.0 0.0 0.0 0.0 6.5 16.6 1.2 0.0 0.1 2.1 2.8 3.9 6.2 4.8 7.4 4.2 5.4 10.2 7.1 5.4 4.3 3.5 1.9 0.1 1.5 4.2 3.3 2.9 3.1 5.5 2.1 0.0 0.0 0.1 0.2 0.0 0.1
0.0 0.0 0.0 0.0 0.0 0.0 0.0 0.0 0.0 0.0 0.0 0.0 1.5 0.0 0.0 8.1 6.9 0.9 0.3 0.0 0.6 2.0 4.5 4.7 7.9 4.9 6.6 9.2 9.9 7.6 6.5 4.9 1.3 2.1 0.1 6.4 4.3 3.1 1.4 0.3 0.0 0.0 0.0 0.0 0.0 0.0 0.0